GW2166 Weather Reports


Display with metric or nautical units.
time (UTC)temp
F
wind
direction
speed
MPH
gust
MPH
rain 1hr
in
rain 24hr
in
rain mn
in
humidity
%
barometer
mb
20260906165034 94 41 4.0 6.0 0.00 0.00 0.00 54 1015.3
20260906164535 94 66 2.0 6.0 0.00 0.00 0.00 56 1015.3
20260906164035 94 118 2.0 6.0 0.00 0.00 0.00 55 1015.5
20260906163535 93 87 4.0 6.0 0.00 0.00 0.00 54 1015.4
20260906161531 92 180 1.0 5.0 0.00 0.00 0.00 56 1015.4
20260906161031 93 135 1.0 5.0 0.00 0.00 0.00 57 1015.4
20260906160531 93 165 3.0 5.0 0.00 0.00 0.00 56 1015.5
20260906160031 92 106 3.0 5.0 0.00 0.00 0.00 57 1015.5
20260906155531 92 209 0.0 5.0 0.00 0.00 0.00 57 1015.4
20260906155031 92 155 3.0 5.0 0.00 0.00 0.00 58 1015.3
20260906154031 92 62 2.0 5.0 0.00 0.00 0.00 60 1015.3
20260906153529 91 155 2.0 5.0 0.00 0.00 0.00 59 1015.2
20260906153030 91 109 3.0 5.0 0.00 0.00 0.00 59 1015.2
20260906152027 90 99 3.0 5.0 0.00 0.00 0.00 61 1015.1
20260906151527 90 68 4.0 5.0 0.00 0.00 0.00 62 1015.0
20260906150526 89 62 2.0 4.0 0.00 0.00 0.00 65 1015.0
20260906150027 88 172 0.0 5.0 0.00 0.00 0.00 65 1015.1
20260906145526 88 178 3.0 5.0 0.00 0.00 0.00 65 1015.1
20260906145026 88 140 3.0 5.0 0.00 0.00 0.00 64 1015.1
20260906144524 87 80 3.0 6.0 0.00 0.00 0.00 66 1015.1
20260906144024 87 73 4.0 6.0 0.00 0.00 0.00 68 1015.1
20260906143521 86 58 2.0 4.0 0.00 0.00 0.00 69 1015.1
20260906143021 86 90 2.0 4.0 0.00 0.00 0.00 72 1015.2
20260906142522 85 144 2.0 4.0 0.00 0.00 0.00 72 1015.1
20260906141519 84 69 1.0 3.0 0.00 0.00 0.00 75 1015.1
20260906141020 83 250 1.0 3.0 0.00 0.00 0.00 75 1015.0
20260906140518 83 92 2.0 3.0 0.00 0.00 0.00 75 1015.1
20260906140018 83 99 2.0 3.0 0.00 0.00 0.00 76 1015.0
20260906135518 82 114 2.0 2.0 0.00 0.00 0.00 77 1015.0
20260906135015 81 82 1.0 3.0 0.00 0.00 0.00 78 1015.0
20260906134516 81 82 2.0 3.0 0.00 0.00 0.00 79 1014.9
20260906134016 80 262 2.0 3.0 0.00 0.00 0.00 80 1015.0
20260906133014 79 262 0.0 1.0 0.00 0.00 0.00 83 1014.8
20260906132514 78 262 0.0 2.0 0.00 0.00 0.00 84 1014.7
20260906131512 77 262 0.0 0.0 0.00 0.00 0.00 87 1014.6
20260906131013 76 262 0.0 1.0 0.00 0.00 0.00 88 1014.5
20260906130509 75 262 0.0 2.0 0.00 0.00 0.00 91 1014.3
20260906130010 74 76 0.0 2.0 0.00 0.00 0.00 93 1014.5
20260906125510 73 76 1.0 2.0 0.00 0.00 0.00 95 1014.3
20260906125008 72 76 0.0 2.0 0.00 0.00 0.00 96 1014.3
20260906124507 71 76 1.0 2.0 0.00 0.00 0.00 96 1014.3
20260906123506 70 76 0.0 2.0 0.00 0.00 0.00 97 1014.0
20260906123006 70 76 1.0 2.0 0.00 0.00 0.00 96 1014.0
20260906122506 70 76 1.0 2.0 0.00 0.00 0.00 96 1014.0
20260906122007 70 76 1.0 2.0 0.00 0.00 0.00 96 1013.9
20260906121502 69 76 0.0 1.0 0.00 0.00 0.00 96 1013.9
20260906121002 69 76 0.0 0.0 0.00 0.00 0.00 96 1013.9
20260906120503 69 76 0.0 0.0 0.00 0.00 0.00 96 1013.9
20260906120003 69 76 0.0 0.0 0.00 0.00 0.00 96 1013.8
20260906115503 69 76 0.0 0.0 0.00 0.00 0.00 96 1013.8
20260906115002 69 76 0.0 0.0 0.00 0.00 0.00 96 1013.7
20260906114502 69 76 0.0 0.0 0.00 0.00 0.00 96 1013.7
20260906114002 69 76 0.0 0.0 0.00 0.00 0.00 96 1013.7
20260906113502 69 76 0.0 1.0 0.00 0.00 0.00 96 1013.7
20260906113003 69 76 0.0 2.0 0.00 0.00 0.00 96 1013.6
20260906112502 69 113 0.0 2.0 0.00 0.00 0.00 96 1013.7
20260906112002 69 113 1.0 2.0 0.00 0.00 0.00 96 1013.7
20260906111502 69 113 0.0 1.0 0.00 0.00 0.00 96 1013.6
20260906111002 69 24 0.0 0.0 0.00 0.00 0.00 96 1013.7
20260906110502 69 24 0.0 0.0 0.00 0.00 0.00 96 1013.6
20260906110003 69 24 0.0 2.0 0.00 0.00 0.00 96 1013.6
20260906105503 69 24 1.0 2.0 0.00 0.00 0.00 96 1013.6
20260906105003 69 24 0.0 0.0 0.00 0.00 0.00 96 1013.6
20260906104503 70 24 0.0 0.0 0.00 0.00 0.00 96 1013.6
20260906104002 69 24 0.0 0.0 0.00 0.00 0.00 96 1013.6
20260906103502 69 24 0.0 0.0 0.00 0.00 0.00 96 1013.7
20260906103002 70 24 0.0 2.0 0.00 0.00 0.00 96 1013.6
20260906102502 70 24 0.0 2.0 0.00 0.00 0.00 96 1013.6
20260906102003 70 24 0.0 0.0 0.00 0.00 0.00 96 1013.7
20260906101502 70 24 0.0 0.0 0.00 0.00 0.00 96 1013.6
20260906101002 70 24 0.0 0.0 0.00 0.00 0.00 96 1013.6
20260906100502 70 24 0.0 0.0 0.00 0.00 0.00 96 1013.6
20260906100002 70 24 0.0 0.0 0.00 0.00 0.00 96 1013.6
20260906095502 70 24 0.0 1.0 0.00 0.00 0.00 96 1013.4
20260906095001 70 25 0.0 1.0 0.00 0.00 0.00 96 1013.4
20260906093503 70 45 0.0 0.0 0.00 0.00 0.00 96 1013.3
20260906093003 70 45 0.0 0.0 0.00 0.00 0.00 96 1013.2
20260906092502 70 45 0.0 0.0 0.00 0.00 0.00 96 1013.2
20260906091003 71 45 0.0 0.0 0.00 0.00 0.00 96 1013.1
20260906090502 71 45 0.0 0.0 0.00 0.00 0.00 96 1013.2
20260906090002 71 45 0.0 0.0 0.00 0.00 0.00 96 1013.2
20260906085503 71 45 0.0 0.0 0.00 0.00 0.00 96 1013.1
20260906085002 71 45 0.0 0.0 0.00 0.00 0.00 96 1013.1
20260906084503 71 45 0.0 0.0 0.00 0.00 0.00 96 1013.1
20260906084003 71 45 0.0 0.0 0.00 0.00 0.00 95 1013.1
20260906083503 71 45 0.0 0.0 0.00 0.00 0.00 95 1013.1
20260906083003 71 45 0.0 0.0 0.00 0.00 0.00 96 1013.0
20260906082502 71 45 0.0 0.0 0.00 0.00 0.00 95 1013.0
20260906081502 71 45 0.0 1.0 0.00 0.00 0.00 95 1013.0
20260906081002 71 45 0.0 1.0 0.00 0.00 0.00 95 1013.0
20260906080502 71 117 0.0 0.0 0.00 0.00 0.00 95 1013.0
20260906080002 71 117 0.0 0.0 0.00 0.00 0.00 95 1013.1
20260906075002 71 118 0.0 0.0 0.00 0.00 0.00 95 1013.1
20260906074503 71 118 0.0 0.0 0.00 0.00 0.00 95 1013.0
20260906074002 72 118 0.0 0.0 0.00 0.00 0.00 95 1013.1
20260906073502 72 118 0.0 0.0 0.00 0.00 0.00 94 1013.0
20260906073003 72 118 0.0 0.0 0.00 0.00 0.00 94 1013.0
20260906072503 72 118 0.0 1.0 0.00 0.00 0.00 95 1013.0
20260906072003 72 118 0.0 1.0 0.00 0.00 0.00 94 1013.1
20260906070503 72 118 0.0 1.0 0.00 0.00 0.00 94 1013.1
20260906070003 72 118 0.0 1.0 0.00 0.00 0.00 94 1013.2
20260906065503 72 118 0.0 1.0 0.00 0.00 0.00 94 1013.2
20260906065002 72 118 0.0 0.0 0.00 0.00 0.00 94 1013.2
20260906064002 72 118 0.0 0.0 0.00 0.00 0.00 94 1013.3
20260906063502 72 118 0.0 0.0 0.00 0.00 0.00 94 1013.4
20260906062503 72 118 0.0 0.0 0.00 0.00 0.00 94 1013.4
20260906062002 72 118 0.0 0.0 0.00 0.00 0.00 94 1013.4
20260906061503 72 118 0.0 0.0 0.00 0.00 0.00 94 1013.3
20260906061003 72 118 0.0 0.0 0.00 0.00 0.00 94 1013.4
20260906060502 73 118 0.0 0.0 0.00 0.00 0.00 94 1013.4
20260906060002 73 118 0.0 0.0 0.00 0.00 0.00 94 1013.4
20260906055503 73 118 0.0 0.0 0.00 0.00 0.00 94 1013.5
20260906055003 73 118 0.0 0.0 0.00 0.00 0.00 94 1013.5
20260906054503 73 118 0.0 0.0 0.00 0.00 0.00 94 1013.6
20260906053002 73 118 0.0 0.0 0.00 0.00 0.00 93 1013.7
20260906052502 73 118 0.0 0.0 0.00 0.00 0.00 93 1013.6
20260906052002 73 118 0.0 1.0 0.00 0.00 0.00 93 1013.6
20260906051503 74 118 0.0 1.0 0.00 0.00 0.00 93 1013.6
20260906050002 74 118 0.0 0.0 0.00 0.00 0.00 93 1013.5
20260906045502 74 118 0.0 1.0 0.00 0.00 0.00 93 1013.5
20260906045002 74 118 0.0 2.0 0.00 0.00 0.00 92 1013.5
20260906044503 74 118 0.0 2.0 0.00 0.00 0.00 92 1013.5
20260906044003 74 118 0.0 2.0 0.00 0.00 0.00 92 1013.5
20260906043002 74 118 0.0 0.0 0.00 0.00 0.00 92 1013.5
20260906042502 74 118 0.0 0.0 0.00 0.00 0.00 91 1013.5
20260906042003 74 118 0.0 1.0 0.00 0.00 0.00 91 1013.3
20260906041502 75 118 0.0 1.0 0.00 0.00 0.00 91 1013.3
20260906041003 75 118 0.0 1.0 0.00 0.00 0.00 91 1013.3
20260906040503 75 118 0.0 0.0 0.00 0.00 0.00 91 1013.3
20260906040003 75 118 0.0 0.0 0.00 0.00 0.00 90 1013.3
20260906035002 75 118 0.0 1.0 0.00 0.00 0.00 90 1013.3
20260906034502 75 118 0.0 1.0 0.00 0.00 0.00 90 1013.1
20260906034003 75 118 0.0 1.0 0.00 0.00 0.00 90 1013.1
20260906033002 76 118 0.0 1.0 0.00 0.00 0.00 90 1013.0
20260906032002 76 118 0.0 1.0 0.00 0.00 0.00 89 1012.9
20260906031502 76 118 0.0 1.0 0.00 0.00 0.00 89 1012.9
20260906031003 76 118 0.0 0.0 0.00 0.00 0.00 89 1012.9
20260906030503 77 118 0.0 0.0 0.00 0.00 0.00 88 1012.8
20260906030003 77 118 0.0 1.0 0.00 0.00 0.00 88 1012.8
20260906025503 77 118 0.0 1.0 0.00 0.00 0.00 88 1012.8
20260906025003 77 118 0.0 0.0 0.00 0.00 0.00 88 1012.6
20260906024502 77 118 0.0 1.0 0.00 0.00 0.00 88 1012.5
20260906023503 77 118 0.0 0.0 0.00 0.00 0.00 87 1012.3
20260906023003 77 118 0.0 1.0 0.00 0.00 0.00 87 1012.3
20260906022002 77 118 0.0 0.0 0.00 0.00 0.00 88 1012.0
20260906021502 78 118 0.0 0.0 0.00 0.00 0.00 87 1012.0
20260906021003 78 118 0.0 0.0 0.00 0.00 0.00 87 1012.0
20260906020503 78 118 0.0 0.0 0.00 0.00 0.00 87 1011.9
20260906015503 78 118 0.0 1.0 0.00 0.00 0.00 86 1011.8
20260906015003 78 118 0.0 1.0 0.00 0.00 0.00 86 1011.7
20260906014503 78 118 0.0 1.0 0.00 0.00 0.00 86 1011.6
20260906014003 78 118 0.0 1.0 0.00 0.00 0.00 86 1011.5
20260906013502 78 118 0.0 0.0 0.00 0.00 0.00 87 1011.4
20260906013002 78 118 0.0 0.0 0.00 0.00 0.00 87 1011.4
20260906012502 78 118 0.0 0.0 0.00 0.00 0.00 87 1011.4
20260906012002 78 118 0.0 1.0 0.00 0.00 0.00 87 1011.3
20260906011501 79 118 0.0 1.0 0.00 0.00 0.00 86 1011.3
20260906010502 80 118 0.0 2.0 0.00 0.00 0.00 84 1011.2
20260906010002 80 118 1.0 2.0 0.00 0.00 0.00 83 1011.3
20260906005503 81 118 0.0 1.0 0.00 0.00 0.00 82 1011.3
20260906005002 81 118 0.0 1.0 0.00 0.00 0.00 81 1011.2
20260906004502 82 118 0.0 1.0 0.00 0.00 0.00 79 1011.2
20260906003503 83 118 0.0 2.0 0.00 0.00 0.00 77 1011.2
20260906002502 83 118 0.0 1.0 0.00 0.00 0.00 75 1011.2
20260906002002 84 118 1.0 1.0 0.00 0.00 0.00 74 1011.3
20260906001503 85 118 0.0 1.0 0.00 0.00 0.00 73 1011.3
20260906001002 85 118 0.0 2.0 0.00 0.00 0.00 72 1011.3
20260905235003 90 118 1.0 2.0 0.00 0.00 0.00 63 1011.4
20260905234503 92 118 0.0 2.0 0.00 0.00 0.00 59 1011.3
20260905234003 94 118 0.0 3.0 0.00 0.00 0.00 51 1011.3
20260905233503 95 171 1.0 4.0 0.00 0.00 0.00 48 1011.3
20260905233003 95 155 2.0 4.0 0.00 0.00 0.00 49 1011.2
20260905232503 94 142 1.0 2.0 0.00 0.00 0.00 55 1011.2
20260905232002 95 142 0.0 3.0 0.00 0.00 0.00 46 1011.2
20260905231503 96 93 0.0 4.0 0.00 0.00 0.00 49 1011.2
20260905231002 96 155 2.0 4.0 0.00 0.00 0.00 48 1011.2
20260905230503 95 189 1.0 4.0 0.00 0.00 0.00 51 1011.2
20260905230002 97 207 0.0 4.0 0.00 0.00 0.00 47 1011.2
20260905225502 97 189 2.0 4.0 0.00 0.00 0.00 47 1011.3
20260905225002 97 213 0.0 3.0 0.00 0.00 0.00 44 1011.3
20260905224502 98 213 0.0 5.0 0.00 0.00 0.00 45 1011.3
20260905224002 98 213 3.0 6.0 0.00 0.00 0.00 41 1011.3
20260905223503 99 317 2.0 7.0 0.00 0.00 0.00 40 1011.3
20260905223001 99 171 2.0 9.0 0.00 0.00 0.00 44 1011.3
20260905222503 99 130 5.0 9.0 0.00 0.00 0.00 43 1011.3
20260905222003 97 45 2.0 5.0 0.00 0.00 0.00 44 1011.4
20260905221502 100 3 2.0 4.0 0.00 0.00 0.00 40 1011.4
20260905220502 99 226 0.0 4.0 0.00 0.00 0.00 43 1011.6
20260905220003 98 213 1.0 6.0 0.00 0.00 0.00 44 1011.5
20260905215503 98 217 3.0 6.0 0.00 0.00 0.00 43 1011.5
20260905215002 99 116 2.0 5.0 0.00 0.00 0.00 42 1011.4
20260905214502 99 173 1.0 6.0 0.00 0.00 0.00 46 1011.4
20260905214002 99 61 2.0 6.0 0.00 0.00 0.00 41 1011.5
20260905213502 98 134 2.0 5.0 0.00 0.00 0.00 44 1011.5
20260905212502 96 241 1.0 6.0 0.00 0.00 0.00 44 1011.6
20260905212002 97 241 2.0 7.0 0.00 0.00 0.00 47 1011.8
20260905211003 100 178 4.0 6.0 0.00 0.00 0.00 41 1011.9
20260905210503 100 37 3.0 11.0 0.00 0.00 0.00 41 1011.9
20260905210002 99 145 5.0 11.0 0.00 0.00 0.00 42 1012.0
20260905205502 97 78 4.0 6.0 0.00 0.00 0.00 44 1012.0
20260905205002 97 188 1.0 10.0 0.00 0.00 0.00 43 1012.1
20260905203502 98 48 3.0 5.0 0.00 0.00 0.00 43 1012.3
20260905203002 96 65 2.0 3.0 0.00 0.00 0.00 45 1012.3
20260905202502 96 65 0.0 7.0 0.00 0.00 0.00 49 1012.4
20260905202003 98 65 3.0 10.0 0.00 0.00 0.00 42 1012.5
20260905201502 100 66 4.0 10.0 0.00 0.00 0.00 42 1012.5
20260905201002 99 145 4.0 10.0 0.00 0.00 0.00 41 1012.6
20260905200503 100 195 3.0 9.0 0.00 0.00 0.00 43 1012.7
20260905195002 100 195 4.0 12.0 0.00 0.00 0.00 43 1012.9
20260905194002 101 172 4.0 13.0 0.00 0.00 0.00 41 1013.0
20260905193503 101 161 5.0 13.0 0.00 0.00 0.00 42 1013.1
20260905192503 99 189 7.0 11.0 0.00 0.00 0.00 43 1013.0
20260905192002 99 192 3.0 7.0 0.00 0.00 0.00 45 1013.1
20260905191002 98 278 2.0 10.0 0.00 0.00 0.00 45 1013.2
20260905190502 98 190 3.0 9.0 0.00 0.00 0.00 44 1013.2
20260905190003 99 251 4.0 10.0 0.00 0.00 0.00 45 1013.3
20260905185502 99 310 3.0 11.0 0.00 0.00 0.00 43 1013.4
20260905184502 99 134 2.0 12.0 0.00 0.00 0.00 44 1013.4
20260905184002 98 235 3.0 12.0 0.00 0.00 0.00 43 1013.5
20260905183502 99 125 5.0 12.0 0.00 0.00 0.00 42 1013.7
20260905183002 99 164 5.0 12.0 0.00 0.00 0.00 44 1013.7
20260905182002 99 219 3.0 9.0 0.00 0.00 0.00 46 1013.8
20260905181502 99 165 5.0 9.0 0.00 0.00 0.00 45 1014.0
20260905181002 98 209 3.0 7.0 0.00 0.00 0.00 47 1014.0
20260905180503 98 234 5.0 9.0 0.00 0.00 0.00 45 1014.0
20260905180003 98 189 4.0 14.0 0.00 0.00 0.00 46 1014.1
20260905175502 98 209 3.0 14.0 0.00 0.00 0.00 47 1014.2
20260905175003 98 157 4.0 11.0 0.00 0.00 0.00 48 1014.2
20260905174502 98 190 7.0 11.0 0.00 0.00 0.00 46 1014.3
20260905174002 97 203 5.0 9.0 0.00 0.00 0.00 48 1014.5
20260905173502 97 206 4.0 9.0 0.00 0.00 0.00 47 1014.5
20260905173004 97 252 3.0 7.0 0.00 0.00 0.00 48 1014.6
20260905172503 97 78 4.0 7.0 0.00 0.00 0.00 49 1014.7
20260905172002 97 241 2.0 5.0 0.00 0.00 0.00 50 1014.7
20260905171002 96 111 4.0 9.0 0.00 0.00 0.00 52 1014.9
20260905170502 95 182 3.0 6.0 0.00 0.00 0.00 53 1014.8
20260905170001 95 202 2.0 5.0 0.00 0.00 0.00 52 1014.9